Location: Boiro
(42.6475°N, 8.8834°W)
Time: 03:23:58
(UTC+01:00)

Vanguard 1 Rocket - Pass Details

Date: 07 December 2021
Orbit: 651 x 4224 km, 34.3° (Epoch: 21 January)

Event Time Altitude Azimuth Distance (km) Brightness Sun altitude
Rises 10:47:46 0° 278° (W) 7,063 11.5 15.1°
Reaches altitude 10° 10:53:44 10° 266° (W) 6,535 11.5 15.8°
Maximum altitude 11:08:48 23° 224° (SW) 6,234 11.9 17.3°
Drops below altitude 10° 11:25:54 10° 183° (S) 7,304 13.1 19.0°
Sets 11:33:31 0° 170° (S) 8,039 13.6 19.6°
